[[{"header":{"parameterUnit":"m.s-1","parameterCategory":1,"la1":30.2991,"la2":30.254,"lo1":-89.0895,"lo2":-89.0444,"dy":0.0017,"dx":0.0017,"nx":28,"ny":28,"refTime":"2025-03-13T03:00:00:Z","depth":0,"parameterNumber":2,"parameterNumberName":"U-component_of_WINDS"},"data":[0,0,0,0,0,0,0,0,0,0,0,0,0,0,0,0,0,0,0,0,0,0,0,0,0,0,0,0,0,0,0,0,0,0,0,0,0,0,0,0,0,0,0,0,0,0,0,0,0,0,0,0,0,0,0,0,0,0,-1.6183,-1.6183,0,-1.6194,-1.6194,-1.6194,-1.621,-1.6211,-1.6211,-1.6211,-1.6221,-1.6221,-1.6221,0,0,0,0,0,0,0,0,0,0,0,0,0,-1.6174,-1.6174,-1.6183,-1.6183,-1.6183,-1.6194,-1.6194,-1.6194,-1.621,-1.6211,-1.6211,-1.6211,-1.6221,-1.6221,-1.6221,0,0,0,0,0,0,0,0,0,0,0,0,0,-1.6181,-1.6174,-1.6183,-1.6192,-1.6193,-1.6194,-1.6194,-1.6194,-1.621,-1.6211,-1.6211,-1.6212,-1.6221,-1.6221,-1.6221,-1.6212,0,0,-1.6221,-1.6221,0,0,0,0,0,0,0,0,-1.618,-1.6181,-1.6191,-1.6192,-1.6193,-1.6201,-1.6194,-1.62,-1.621,-1.6204,-1.6211,-1.6212,-1.6214,-1.6214,-1.6216,-1.6212,-1.6213,-1.6221,-1.6221,-1.6221,-1.6221,0,0,0,0,0,0,0,-1.618,-1.6181,-1.6187,-1.6191,-1.6192,-1.6196,-1.6197,-1.6196,-1.6206,-1.6204,-1.6206,-1.6207,-1.6215,-1.6215,-1.6216,-1.6213,-1.6221,-1.6221,-1.6221,-1.6221,-1.6201,-1.6201,0,0,0,0,0,0,-1.6178,-1.618,-1.6187,-1.6187,-1.6188,-1.6196,-1.6197,-1.6198,-1.6206,-1.6208,-1.6206,-1.6208,-1.6215,-1.6216,-1.6216,-1.6205,-1.6221,-1.6221,-1.6221,-1.6202,-1.6201,-1.6201,0,0,0,0,0,0,-1.6178,-1.6179,-1.6186,-1.6184,-1.6185,-1.6195,-1.6196,-1.6198,-1.6199,-1.6208,-1.621,-1.6206,-1.6216,-1.6216,-1.6213,-1.6206,-1.6221,-1.6221,-1.6203,-1.6202,-1.6201,-1.6183,0,0,0,0,0,0,-1.6178,-1.6178,-1.6176,-1.6184,-1.6185,-1.6183,-1.6196,-1.6198,-1.6199,-1.6201,-1.6207,-1.6209,-1.6216,-1.6213,-1.6213,-1.6206,-1.6221,-1.6203,-1.6202,-1.6201,-1.6184,-1.6182,-1.618,0,0,0,0,0,-1.6177,-1.617,-1.6175,-1.6176,-1.6182,-1.6183,-1.6183,-1.6192,-1.6199,-1.6195,-1.6201,-1.6209,-1.6207,-1.6212,-1.6212,-1.6205,-1.6204,-1.6203,-1.6201,-1.6186,-1.6183,-1.618,0,0,0,0,0,0,-1.616,-1.6171,-1.6177,-1.6173,-1.6177,-1.6185,-1.6182,-1.6189,-1.619,-1.6192,-1.6202,-1.6204,-1.6198,-1.6202,-1.6207,-1.6196,-1.6206,-1.6205,-1.6194,-1.6191,-1.6189,-1.6188,-1.6221,0,0,0,0,0,-1.6156,-1.6156,-1.6166,-1.6161,-1.6162,-1.6172,-1.6172,-1.6179,-1.6183,-1.6184,-1.619,-1.6193,-1.6193,-1.6193,-1.6193,-1.6186,-1.6186,-1.6181,-1.6179,-1.6177,-1.6175,-1.617,-1.6167,-1.6197,-1.6197,-1.6197,0,0,-1.6147,-1.6153,-1.6152,-1.6157,-1.6161,-1.616,-1.6173,-1.6171,-1.617,-1.6184,-1.618,-1.6185,-1.6189,-1.6183,-1.618,-1.6185,-1.6167,-1.6175,-1.6174,-1.6173,-1.6168,-1.6165,-1.6163,-1.6196,-1.6197,-1.6197,0,0,-1.613,-1.6135,-1.6131,-1.6135,-1.614,-1.6146,-1.6145,-1.6153,-1.6156,-1.6153,-1.6163,-1.6162,-1.6162,-1.6164,-1.6165,-1.6149,-1.6155,-1.6149,-1.6136,-1.6131,-1.6128,-1.6126,-1.6118,-1.6116,-1.6147,-1.6147,-1.6147,0,-1.6118,-1.6117,-1.6128,-1.6126,-1.6127,-1.614,-1.6135,-1.6138,-1.6143,-1.6143,-1.6149,-1.6149,-1.6153,-1.6147,-1.6142,-1.6144,-1.6142,-1.6147,-1.6128,-1.6126,-1.6124,-1.6117,-1.6114,-1.6146,-1.6146,-1.6146,-1.6147,0,-1.6102,-1.6101,-1.6097,-1.6102,-1.6103,-1.6099,-1.6108,-1.6108,-1.6114,-1.6119,-1.6115,-1.6121,-1.6122,-1.6121,-1.6128,-1.6116,-1.6118,-1.6126,-1.6136,-1.612,-1.6113,-1.6111,-1.6145,-1.6145,-1.6145,-1.6146,0,0,-1.6073,-1.6084,-1.6082,-1.6084,-1.6091,-1.609,-1.6087,-1.6089,-1.6087,-1.6091,-1.6087,-1.6087,-1.6094,-1.6095,-1.6102,-1.6097,-1.6082,-1.6105,-1.6105,-1.6099,-1.6067,-1.606,-1.6057,-1.6087,-1.6086,-1.6086,-1.6066,0,-1.6056,-1.6052,-1.6061,-1.6053,-1.6052,-1.6064,-1.6061,-1.6065,-1.6069,-1.6068,-1.6074,-1.6073,-1.6083,-1.6083,-1.6079,-1.6084,-1.6075,-1.6086,-1.6082,-1.6082,-1.6079,-1.6054,-1.6046,-1.6027,-1.6064,-1.6063,-1.6063,0,-1.6036,-1.6038,-1.6031,-1.6037,-1.6037,-1.6034,-1.6036,-1.6035,-1.6039,-1.6043,-1.6044,-1.6052,-1.6048,-1.6058,-1.6052,-1.606,-1.6059,-1.6061,-1.606,-1.6059,-1.607,-1.605,-1.6021,-1.6018,-1.6059,-1.606,-1.606,0,-1.6014,-1.6015,-1.6011,-1.6012,-1.602,-1.6017,-1.6021,-1.6025,-1.6025,-1.6026,-1.6026,-1.6027,-1.6027,-1.6027,-1.6034,-1.6042,-1.6027,-1.6039,-1.6029,-1.6028,-1.6024,-1.6023,-1.5993,-1.6026,-1.6026,-1.6026,-1.6026,0,-1.5993,-1.5988,-1.6001,-1.5998,-1.5991,-1.6002,-1.5995,-1.6,-1.6003,-1.6,-1.6011,-1.6008,-1.6019,-1.6017,-1.6023,-1.6016,-1.6017,-1.6018,-1.602,-1.6016,-1.6016,-1.6015,-1.6015,-1.6025,-1.6025,-1.6026,-1.6026,0,-1.5967,-1.5976,-1.5971,-1.5979,-1.5981,-1.5976,-1.5982,-1.5979,-1.5985,-1.5981,-1.5981,-1.5989,-1.5987,-1.5995,-1.5995,-1.5998,-1.5988,-1.5992,-1.5986,-1.5987,-1.5976,-1.5976,-1.5942,-1.5937,-1.5975,-1.5975,-1.5974,0,-1.5952,-1.5948,-1.5956,-1.5955,-1.5958,-1.5956,-1.5956,-1.5966,-1.5966,-1.5969,-1.5965,-1.5965,-1.5964,-1.596,-1.5966,-1.5965,-1.5968,-1.5956,-1.5968,-1.5964,-1.5966,-1.5965,-1.5964,-1.5953,-1.5953,-1.5952,-1.5952,0,-1.5925,-1.5929,-1.5929,-1.593,-1.593,-1.5931,-1.5933,-1.5932,-1.5943,-1.5941,-1.5939,-1.5939,-1.5938,-1.5936,-1.5937,-1.5939,-1.5946,-1.5949,-1.5946,-1.5942,-1.5937,-1.5938,-1.5978,-1.5949,-1.5949,-1.595,-1.595,-1.595,-1.5903,-1.5899,-1.5904,-1.5903,-1.5905,-1.5907,-1.5904,-1.5909,-1.5908,-1.5908,-1.5915,-1.5911,-1.5914,-1.5915,-1.5917,-1.5914,-1.5919,-1.5915,-1.5914,-1.5913,-1.591,-1.594,-1.5914,-1.5914,-1.5914,-1.5914,-1.5914,0,-1.5874,-1.5878,-1.5877,-1.5879,-1.5878,-1.5887,-1.5889,-1.5887,-1.5884,-1.5887,-1.5886,-1.5883,-1.5881,-1.5887,-1.5886,-1.5882,-1.5885,-1.5881,-1.588,-1.588,-1.5906,-1.5908,-1.5878,-1.5878,-1.5878,-1.5878,-1.5878,-1.5878,-1.5859,-1.5853,-1.5858,-1.5853,-1.5856,-1.5853,-1.5853,-1.5854,-1.5856,-1.5853,-1.5851,-1.5855,-1.5858,-1.5857,-1.5855,-1.5857,-1.5855,-1.5849,-1.5852,-1.5875,-1.5879,-1.5882,-1.5883,-1.5849,-1.5849,-1.5826,-1.5826,-1.5825]},{"header":{"parameterUnit":"m.s-1","parameterCategory":1,"la1":30.2991,"la2":30.254,"lo1":-89.0895,"lo2":-89.0444,"dy":0.0017,"dx":0.0017,"nx":28,"ny":28,"refTime":"2025-03-13T03:00:00:Z","depth":0,"parameterNumber":3,"parameterNumberName":"V-component_of_WINDS"},"data":[0,0,0,0,0,0,0,0,0,0,0,0,0,0,0,0,0,0,0,0,0,0,0,0,0,0,0,0,0,0,0,0,0,0,0,0,0,0,0,0,0,0,0,0,0,0,0,0,0,0,0,0,0,0,0,0,0,0,3.1497,3.1497,0,3.1517,3.1518,3.1518,3.1474,3.1473,3.1471,3.147,3.1491,3.1493,3.1495,0,0,0,0,0,0,0,0,0,0,0,0,0,3.1423,3.1424,3.1497,3.1497,3.1498,3.1517,3.1518,3.1518,3.1474,3.1473,3.1471,3.1469,3.1491,3.1493,3.1495,0,0,0,0,0,0,0,0,0,0,0,0,0,3.145,3.1425,3.1497,3.1478,3.1477,3.1517,3.1518,3.1518,3.1475,3.1473,3.147,3.1468,3.149,3.1493,3.1496,3.1556,0,0,3.1504,3.1506,0,0,0,0,0,0,0,0,3.1449,3.1453,3.1481,3.148,3.1478,3.1491,3.1499,3.1531,3.1475,3.1476,3.147,3.1467,3.1493,3.1496,3.1504,3.1557,3.1558,3.1505,3.1506,3.1508,3.1508,0,0,0,0,0,0,0,3.1447,3.1452,3.1505,3.1481,3.148,3.1469,3.1471,3.1505,3.1496,3.1475,3.1472,3.1475,3.1492,3.1501,3.1504,3.1558,3.1505,3.1507,3.1509,3.151,3.1663,3.1666,0,0,0,0,0,0,3.1447,3.1451,3.1505,3.1506,3.1458,3.1473,3.1474,3.1489,3.1495,3.1494,3.1477,3.1473,3.1498,3.1501,3.1505,3.1577,3.1508,3.151,3.1512,3.1661,3.1664,3.1667,0,0,0,0,0,0,3.1446,3.1452,3.1504,3.1477,3.1483,3.1476,3.1493,3.1491,3.15,3.1497,3.1495,3.1488,3.1496,3.1501,3.1544,3.1577,3.1511,3.1514,3.1658,3.1662,3.1665,3.1722,0,0,0,0,0,0,3.1444,3.1452,3.1474,3.1478,3.1485,3.1542,3.1495,3.1492,3.1505,3.15,3.1507,3.1506,3.1495,3.154,3.1547,3.158,3.1516,3.1655,3.166,3.1664,3.1717,3.1727,3.1735,0,0,0,0,0,3.1441,3.1489,3.1476,3.1482,3.1512,3.1544,3.1548,3.1534,3.1508,3.1531,3.1529,3.1506,3.1572,3.1545,3.1552,3.1587,3.1653,3.1659,3.1664,3.1713,3.1725,3.1735,0,0,0,0,0,0,3.1489,3.1489,3.1474,3.1525,3.1535,3.1537,3.1565,3.1547,3.1564,3.1559,3.1541,3.1543,3.159,3.1592,3.1562,3.1646,3.1609,3.1616,3.1643,3.1655,3.1664,3.1663,3.1519,0,0,0,0,0,3.1506,3.1531,3.153,3.1574,3.158,3.1572,3.1585,3.1573,3.1583,3.1587,3.1588,3.1599,3.1623,3.1639,3.166,3.1717,3.1719,3.1744,3.1754,3.1761,3.1768,3.18,3.1812,3.1684,3.1684,3.1684,0,0,3.154,3.1543,3.156,3.1584,3.1591,3.1618,3.1576,3.1606,3.1627,3.1592,3.1633,3.1635,3.1645,3.1696,3.1719,3.17,3.1804,3.1768,3.1774,3.1777,3.1807,3.1819,3.183,3.1688,3.1687,3.1687,0,0,3.1617,3.1621,3.166,3.1667,3.1677,3.1672,3.1681,3.1686,3.1686,3.1727,3.1702,3.1726,3.1767,3.1776,3.1786,3.1869,3.1849,3.1876,3.1924,3.1956,3.1966,3.1975,3.2006,3.2018,3.1882,3.1883,3.1883,0,3.1658,3.1698,3.1682,3.1715,3.1727,3.1697,3.1736,3.1744,3.1762,3.1771,3.1749,3.1801,3.1806,3.1859,3.188,3.1888,3.19,3.1876,3.1966,3.1975,3.1983,3.2012,3.2024,3.1886,3.1886,3.1885,3.1885,0,3.1749,3.1778,3.1808,3.1825,3.1841,3.1877,3.1867,3.1884,3.1872,3.1869,3.1912,3.1917,3.194,3.1952,3.1939,3.2004,3.1993,3.1969,3.1931,3.1999,3.2026,3.2037,3.1891,3.189,3.1889,3.1888,0,0,3.1857,3.1866,3.1877,3.1886,3.1895,3.1917,3.1953,3.1975,3.1991,3.2004,3.2035,3.207,3.2049,3.2061,3.2049,3.2077,3.2144,3.205,3.205,3.2069,3.2219,3.2237,3.2251,3.2131,3.2133,3.2135,3.2218,0,3.1934,3.1995,3.1982,3.2042,3.2069,3.2041,3.2072,3.2083,3.2081,3.2104,3.2102,3.2129,3.2098,3.2105,3.2131,3.2131,3.2174,3.2124,3.2161,3.2162,3.216,3.2265,3.2284,3.2363,3.2229,3.223,3.2232,0,3.2032,3.205,3.2112,3.212,3.213,3.2159,3.2179,3.2201,3.2213,3.221,3.2224,3.2208,3.2244,3.2205,3.2256,3.2222,3.2236,3.2239,3.2241,3.2245,3.2202,3.2273,3.2387,3.24,3.2248,3.2247,3.2246,0,3.2106,3.2145,3.2188,3.2196,3.2205,3.2226,3.2231,3.224,3.2255,3.2273,3.2283,3.2305,3.2318,3.2336,3.2326,3.2298,3.238,3.234,3.238,3.238,3.2399,3.2398,3.2519,3.2406,3.2406,3.2406,3.2405,0,3.2195,3.2235,3.2222,3.2249,3.2293,3.2278,3.2323,3.2325,3.2334,3.2361,3.2338,3.2365,3.2351,3.2376,3.2369,3.2414,3.2419,3.2419,3.2417,3.2422,3.2422,3.2432,3.2427,3.2409,3.2408,3.2407,3.2407,0,3.2285,3.2278,3.2324,3.2329,3.2331,3.2364,3.2369,3.2395,3.2392,3.2427,3.2434,3.243,3.2459,3.2452,3.2483,3.2479,3.2536,3.2526,3.2532,3.253,3.2572,3.2569,3.2704,3.2722,3.2596,3.2597,3.2598,0,3.2343,3.2373,3.2382,3.2399,3.2405,3.2432,3.2448,3.2435,3.2452,3.2468,3.2492,3.2519,3.2541,3.2589,3.2589,3.2614,3.2606,3.2651,3.2609,3.2614,3.2609,3.2608,3.2611,3.266,3.2662,3.2663,3.2664,0,3.2447,3.2442,3.2465,3.2487,3.2506,3.2523,3.2538,3.2553,3.2541,3.2562,3.2591,3.2608,3.2641,3.2669,3.2692,3.2698,3.268,3.2677,3.2688,3.2694,3.2697,3.2698,3.2557,3.2674,3.2673,3.2672,3.2672,3.2671,3.2524,3.255,3.2561,3.2587,3.2597,3.2612,3.2637,3.2637,3.2662,3.2688,3.2678,3.2713,3.2726,3.2755,3.2764,3.2791,3.2774,3.2789,3.2794,3.2798,3.2804,3.2692,3.2795,3.2795,3.2795,3.2794,3.2794,0,3.2627,3.2633,3.2658,3.268,3.2701,3.2682,3.2698,3.2717,3.2748,3.2761,3.2782,3.2818,3.2845,3.2848,3.2874,3.2896,3.2889,3.2904,3.2903,3.2905,3.2817,3.2806,3.2909,3.2909,3.2909,3.2909,3.2909,3.2909,3.2684,3.2728,3.2725,3.2775,3.278,3.2814,3.2825,3.2839,3.285,3.289,3.2913,3.2914,3.2924,3.2951,3.2976,3.2976,3.2988,3.3006,3.3004,3.2922,3.2911,3.29,3.2889,3.3009,3.3009,3.3089,3.309,3.3091]}]]